Simultaneous Nadir Overpasses (SNOs) Predictions

Prediction of SNOs near equator between AQUA and NPP Satellite Orbit:

Table of predicted SNOs near equator for the next 14.0 days since TLE Epoch: 8/5/2012
Index Date (AQUA) Time (AQUA) AQUA Lat,Lon Date (NPP) Time (NPP) NPP Lat,Lon Distance(km) Time Diff (sec)
1 08/06/2012 09:31:07 -4.24,-119.55 08/06/2012 09:21:40 -4.08,-120.24 79.01 567
2 08/09/2012 01:05:17 30.00,-177.22 08/09/2012 00:55:17 30.06,-178.09 83.22 600
3 08/09/2012 01:47:03 -2.49, -3.28 08/09/2012 01:38:05 -2.32, -4.08 90.49 538
4 08/11/2012 17:14:52 5.29, -55.64 08/11/2012 17:05:07 5.14, -56.27 71.63 585
5 08/14/2012 09:30:45 3.47, 60.64 08/14/2012 09:21:30 3.34, 59.90 83.47 555
6 08/17/2012 00:58:23 -6.21, 8.34 08/17/2012 00:48:23 -6.14, 7.75 65.40 600
7 08/17/2012 01:46:40 1.74, 176.91 08/17/2012 01:37:54 1.55, 176.07 95.38 526




NCC Satellite Simultaneous Nadir Overpasses (SNOs) Prediction Service
